Weather History for KPVU - August, 2013

Change the Weather History Date:

Sunday, August 25, 2013

  Actual Average Record
Temperature  
Mean Temperature 68 °F -  
Max Temperature 82 °F 84 °F 95 °F (2007)
Min Temperature 55 °F 54 °F 43 °F (1989)
Cooling Degree Days 4    
Growing Degree Days 18 (Base 50)    
Moisture  
Dew Point 52 °F    
Average Humidity 55    
Maximum Humidity 82    
Minimum Humidity 32    
Precipitation  
Precipitation 0.00 in - - ()
Sea Level Pressure  
Sea Level Pressure 30.13 in    
Wind  
Wind Speed 12 mph (SSE)    
Max Wind Speed 21 mph    
Max Gust Speed 21 mph    
Visibility 12 miles    
Events      
Averages and records for this station are not official NWS values.
T = Trace of Precipitation, MM = Missing Value Source: NWS Daily Summary

Daily Weather History Graph

Daily Weather History Graph

Search for Another Location

Airport or City:

Trip Planner

Search our weather history database for the weather conditions in past years. The results will help you decide how hot, cold, wet, or windy it might be!

Date:

Astronomy

Aug. 25, 2013 Rise Set
Actual Time 6:48 AM MDT 8:08 PM MDT
Civil Twilight 6:19 AM MDT 8:37 PM MDT
Nautical Twilight 5:45 AM MDT 9:11 PM MDT
Astronomical Twilight 5:09 AM MDT 9:46 PM MDT
Moon 10:41 PM MDT (8/25) 11:54 AM MDT (8/25)
Length of Visible Light 14h 17m
Length of Day
13h 20m
Waning Gibbous, 75% of the Moon is Illuminated
Aug 25
Waning Gibbous
Aug 28
Last Quarter
Sep 5
New
Sep 12
First Quarter
Sep 19
Full

Hourly Weather History & Observations

Time (MDT) Temp. Heat Index Dew Point Humidity Pressure Visibility Wind Dir Wind Speed Gust Speed Precip Events Conditions
12:15 AM 68.0 °F - 51.8 °F 56% 30.11 in 10.0 mi SSE 17.3 mph - N/A   Clear
12:35 AM 68.0 °F - 51.8 °F 56% 30.11 in 10.0 mi SSE 15.0 mph - N/A   Clear
12:55 AM 68.0 °F - 51.8 °F 56% 30.11 in 10.0 mi SSE 20.7 mph - N/A   Clear
1:15 AM 66.2 °F - 51.8 °F 60% 30.12 in 10.0 mi SSE 13.8 mph - N/A   Clear
1:35 AM 66.2 °F - 51.8 °F 60% 30.12 in 10.0 mi SSE 15.0 mph - N/A   Clear
1:55 AM 66.2 °F - 51.8 °F 60% 30.12 in 10.0 mi SSE 17.3 mph - N/A   Partly Cloudy
2:15 AM 68.0 °F - 51.8 °F 56% 30.12 in 10.0 mi South 17.3 mph - N/A   Mostly Cloudy
2:35 AM 66.2 °F - 51.8 °F 60% 30.12 in 10.0 mi SSE 13.8 mph - N/A   Mostly Cloudy
2:55 AM 66.2 °F - 51.8 °F 60% 30.12 in 10.0 mi SSE 12.7 mph - N/A   Partly Cloudy
3:15 AM 64.4 °F - 51.8 °F 64% 30.12 in 10.0 mi South 10.4 mph - N/A   Clear
3:35 AM 64.4 °F - 50.0 °F 59% 30.12 in 10.0 mi SSE 9.2 mph - N/A   Clear
3:55 AM 62.6 °F - 51.8 °F 68% 30.13 in 10.0 mi ESE 8.1 mph - N/A   Clear
4:15 AM 60.8 °F - 50.0 °F 68% 30.13 in 10.0 mi East 5.8 mph - N/A   Clear
4:35 AM 62.6 °F - 48.2 °F 59% 30.14 in 10.0 mi SSW 3.5 mph - N/A   Clear
4:55 AM 60.8 °F - 51.8 °F 72% 30.14 in 10.0 mi South 5.8 mph - N/A   Clear
5:15 AM 60.8 °F - 50.0 °F 68% 30.15 in 10.0 mi SSE 3.5 mph - N/A   Clear
5:35 AM 60.8 °F - 51.8 °F 72% 30.14 in 10.0 mi ESE 5.8 mph - N/A   Clear
5:55 AM 60.8 °F - 50.0 °F 68% 30.15 in 10.0 mi SE 6.9 mph - N/A   Clear
6:15 AM 57.2 °F - 48.2 °F 72% 30.15 in 10.0 mi Calm Calm - N/A   Clear
6:35 AM 59.0 °F - 51.8 °F 77% 30.16 in 10.0 mi SE 5.8 mph - N/A   Clear
6:50 AM 55.4 °F - 50.0 °F 82% 30.17 in 15.0 mi Calm Calm - N/A   Partly Cloudy
7:55 AM 60.8 °F - 51.8 °F 72% 30.19 in 15.0 mi ENE 4.6 mph - N/A   Partly Cloudy
8:50 AM 66.2 °F - 51.8 °F 60% 30.19 in 15.0 mi Calm Calm - N/A   Partly Cloudy
9:51 AM 71.6 °F - 51.8 °F 50% 30.19 in 15.0 mi Calm Calm - N/A   Partly Cloudy
10:55 AM 75.2 °F - 53.6 °F 47% 30.18 in 15.0 mi SE 5.8 mph - N/A   Partly Cloudy
11:51 AM 75.2 °F - 53.6 °F 47% 30.17 in 15.0 mi West 3.5 mph - N/A   Partly Cloudy
12:50 PM 77.0 °F - 53.6 °F 44% 30.16 in 15.0 mi West 5.8 mph - N/A   Mostly Cloudy
1:50 PM 80.6 °F - 51.8 °F 37% 30.14 in 15.0 mi South 4.6 mph - N/A   Mostly Cloudy
2:50 PM 82.4 °F - 50.0 °F 32% 30.12 in 15.0 mi South 4.6 mph - N/A   Overcast
3:50 PM 82.4 °F - 50.0 °F 32% 30.11 in 15.0 mi SE 5.8 mph - N/A   Overcast
4:50 PM 82.4 °F - 51.8 °F 35% 30.09 in 15.0 mi Variable 5.8 mph - N/A   Overcast
5:50 PM 80.6 °F 80.5 °F 55.4 °F 42% 30.09 in 15.0 mi ESE 11.5 mph - N/A   Overcast
6:50 PM 78.8 °F - 51.8 °F 39% 30.08 in 15.0 mi ESE 13.8 mph - N/A   Overcast
7:50 PM 77.0 °F - 51.8 °F 41% 30.08 in 15.0 mi ESE 13.8 mph - N/A   Overcast
8:50 PM 75.2 °F - 51.8 °F 44% 30.10 in 15.0 mi SE 16.1 mph - N/A   Overcast
9:15 PM 75.2 °F - 51.8 °F 44% 30.11 in 10.0 mi SE 16.1 mph 20.7 mph N/A   Clear
9:35 PM 75.2 °F - 51.8 °F 44% 30.12 in 10.0 mi SE 15.0 mph - N/A   Clear
9:55 PM 75.2 °F - 51.8 °F 44% 30.13 in 10.0 mi SE 15.0 mph 19.6 mph N/A   Clear
10:15 PM 73.4 °F - 53.6 °F 50% 30.13 in 10.0 mi SE 18.4 mph - N/A   Clear
10:35 PM 73.4 °F - 51.8 °F 47% 30.14 in 10.0 mi South 16.1 mph 19.6 mph N/A   Clear
10:55 PM 73.4 °F - 53.6 °F 50% 30.15 in 10.0 mi South 15.0 mph - N/A   Clear
11:15 PM 71.6 °F - 51.8 °F 50% 30.14 in 10.0 mi South 12.7 mph 18.4 mph N/A   Mostly Cloudy
11:35 PM 71.6 °F - 51.8 °F 50% 30.14 in 10.0 mi South 8.1 mph - N/A   Overcast
11:55 PM 71.6 °F - 53.6 °F 53% 30.15 in 10.0 mi South 11.5 mph - N/A   Overcast